Weather History for Andrews, NC

Change the Weather History Date:

Tuesday, March 12, 2013

  Actual Average (KTYS) Record (KTYS)
Temperature  
Mean Temperature 44 °F 49 °F  
Max Temperature 55 °F 60 °F 81 °F (1911)
Min Temperature 32 °F 38 °F 18 °F (1969)
Degree Days  
Heating Degree Days 21 16  
Month to date heating degree days 209  
Since 1 July heating degree days 3105  
Cooling Degree Days 0 0  
Month to date cooling degree days 0  
Year to date cooling degree days 0  
Moisture  
Dew Point 35 °F    
Average Humidity 73    
Maximum Humidity 97    
Minimum Humidity 39    
Precipitation  
Precipitation 0.00 in 0.13 in 3.25 in (1963)
Month to date precipitation 1.65  
Year to date precipitation 10.23  
Snow  
Snow 0.00 in 0.00 in - ()
Month to date snowfall 0.4  
Since 1 July snowfall 5.5  
Snow Depth -    
Sea Level Pressure  
Sea Level Pressure 29.95 in    
Wind  
Wind Speed 5 mph (NW)    
Max Wind Speed 13 mph    
Max Gust Speed 20 mph    
Visibility 9 miles    
Events Rain    
T = Trace of Precipitation, MM = Missing Value Source: NWS Daily Summary

Daily Weather History Graph

Daily Weather History Graph

Search for Another Location

Airport:

Trip Planner

Search our weather history database for the weather conditions in past years. The results will help you decide how hot, cold, wet, or windy it might be!

Date:

Astronomy

Mar. 12, 2013 Rise Set
Actual Time 7:49 AM EDT 7:40 PM EDT
Civil Twilight 7:24 AM EDT 8:06 PM EDT
Nautical Twilight 6:55 AM EDT 8:35 PM EDT
Astronomical Twilight 6:25 AM EDT 9:05 PM EDT
Moon 7:59 AM EDT (3/12) 8:50 PM EDT (3/12)
Length of Visible Light 12h 41m
Length of Day
11h 50m
New Moon, 1% of the Moon is Illuminated
Mar 12
New Moon
Mar 19
First Quarter
Mar 27
Full
Apr 3
Last Quarter
Apr 10
New

Hourly Weather History & Observations

Time (EDT) Temp. Windchill Dew Point Humidity Pressure Visibility Wind Dir Wind Speed Gust Speed Precip Events Conditions
12:15 AM 50.5 °F - 49.6 °F 97% 29.84 in 5.0 mi WSW 5.8 mph - N/A Rain Rain
12:35 AM 49.6 °F - 48.2 °F 95% 29.83 in 7.0 mi WSW 5.8 mph - N/A   Drizzle
12:55 AM 49.1 °F - 48.2 °F 97% 29.83 in 10.0 mi West 5.8 mph - N/A   Light Drizzle
1:15 AM 49.1 °F - 47.5 °F 94% 29.83 in 10.0 mi West 6.9 mph - N/A   Overcast
1:35 AM 48.4 °F - 47.1 °F 95% 29.83 in 10.0 mi West 6.9 mph - N/A   Light Drizzle
1:55 AM 48.2 °F - 46.6 °F 94% 29.82 in 10.0 mi WNW 6.9 mph - N/A   Overcast
2:15 AM 46.2 °F 40.8 °F 44.6 °F 94% 29.84 in 7.0 mi WSW 11.5 mph - N/A Rain Light Rain
2:35 AM 45.5 °F 41.3 °F 43.9 °F 94% 29.84 in 10.0 mi West 8.1 mph - N/A Rain Rain
2:55 AM 44.8 °F 39.9 °F 43.5 °F 95% 29.85 in 7.0 mi West 9.2 mph - N/A   Drizzle
3:15 AM 43.7 °F 41.1 °F 42.3 °F 95% 29.84 in 5.0 mi West 4.6 mph - N/A   Overcast
3:35 AM 43.3 °F 39.2 °F 42.1 °F 95% 29.85 in 10.0 mi West 6.9 mph - N/A   Overcast
3:55 AM 42.8 °F 38.6 °F 41.5 °F 95% 29.84 in 7.0 mi West 6.9 mph - N/A   Overcast
4:15 AM 41.9 °F 36.9 °F 40.6 °F 95% 29.85 in 10.0 mi West 8.1 mph - N/A   Overcast
4:35 AM 41.7 °F 38.0 °F 40.8 °F 97% 29.85 in 5.0 mi West 5.8 mph - N/A   Overcast
4:55 AM 41.4 °F 36.2 °F 40.5 °F 97% 29.85 in 3.0 mi West 8.1 mph - N/A   Overcast
5:15 AM 40.6 °F 37.5 °F 39.9 °F 97% 29.86 in 2.5 mi West 4.6 mph - N/A   Drizzle
5:35 AM 39.7 °F - 37.8 °F 93% 29.86 in 3.0 mi Calm Calm - N/A   Overcast
5:55 AM 39.6 °F 37.4 °F 37.2 °F 91% 29.87 in 3.0 mi NNW 3.5 mph - N/A   Overcast
6:15 AM 39.6 °F - 36.7 °F 89% 29.87 in 7.0 mi Calm Calm - N/A   Overcast
6:35 AM 39.2 °F 37.0 °F 36.9 °F 91% 29.89 in 7.0 mi NW 3.5 mph - N/A   Overcast
6:55 AM 38.8 °F 33.2 °F 35.2 °F 87% 29.89 in 10.0 mi NNW 8.1 mph - N/A   Overcast
7:15 AM 38.7 °F - 37.4 °F 95% 29.90 in 3.0 mi Calm Calm - N/A   Overcast
7:35 AM 38.3 °F 31.9 °F 34.2 °F 85% 29.93 in 10.0 mi North 9.2 mph 19.6 mph N/A   Overcast
7:55 AM 37.8 °F 34.2 °F 34.9 °F 89% 29.93 in 7.0 mi North 4.6 mph - N/A   Overcast
8:15 AM 37.6 °F 34.0 °F 33.6 °F 86% 29.94 in 10.0 mi North 4.6 mph - N/A   Overcast
8:35 AM 37.6 °F 33.1 °F 33.6 °F 86% 29.94 in 10.0 mi East 5.8 mph - N/A   Overcast
8:55 AM 37.4 °F 33.8 °F 33.1 °F 84% 29.95 in 10.0 mi East 4.6 mph - N/A   Overcast
9:15 AM 37.9 °F 34.4 °F 32.5 °F 81% 29.96 in 10.0 mi ESE 4.6 mph - N/A   Mostly Cloudy
9:35 AM 39.2 °F 35.0 °F 32.7 °F 78% 29.96 in 10.0 mi East 5.8 mph - N/A   Scattered Clouds
9:55 AM 40.3 °F 37.1 °F 33.1 °F 75% 29.95 in 10.0 mi ESE 4.6 mph - N/A   Clear
10:15 AM 41.0 °F 37.1 °F 32.7 °F 72% 29.96 in 10.0 mi East 5.8 mph - N/A   Clear
10:35 AM 42.3 °F 40.5 °F 32.7 °F 69% 29.96 in 10.0 mi ESE 3.5 mph - N/A   Clear
10:55 AM 42.6 °F - 32.9 °F 68% 29.96 in 10.0 mi Calm Calm - N/A   Clear
11:15 AM 43.7 °F - 32.9 °F 66% 29.97 in 10.0 mi Calm Calm - N/A   Scattered Clouds
11:35 AM 44.6 °F 43.1 °F 33.4 °F 65% 29.98 in 10.0 mi SE 3.5 mph - N/A   Scattered Clouds
11:55 AM 45.5 °F - 34.2 °F 65% 29.98 in 10.0 mi Calm Calm - N/A   Clear
12:15 PM 46.4 °F - 33.1 °F 60% 29.98 in 10.0 mi Calm Calm - N/A   Clear
12:35 PM 47.7 °F - 33.8 °F 59% 29.98 in 10.0 mi SSE 4.6 mph - N/A   Clear
12:55 PM 49.1 °F - 33.6 °F 55% 29.98 in 10.0 mi South 3.5 mph - N/A   Clear
1:15 PM 50.7 °F - 35.1 °F 55% 29.97 in 10.0 mi ESE 3.5 mph - N/A   Clear
1:35 PM 50.5 °F - 35.2 °F 56% 29.97 in 10.0 mi Calm Calm - N/A   Clear
1:55 PM 52.2 °F - 33.8 °F 50% 29.97 in 10.0 mi SSW 3.5 mph - N/A   Clear
2:15 PM 53.1 °F - 36.1 °F 53% 29.97 in 10.0 mi West 8.1 mph - N/A   Clear
2:35 PM 52.3 °F - 37.4 °F 57% 29.96 in 10.0 mi West 6.9 mph - N/A   Scattered Clouds
2:55 PM 53.2 °F - 37.8 °F 56% 29.96 in 10.0 mi WSW 6.9 mph - N/A   Scattered Clouds
3:15 PM 54.0 °F - 36.5 °F 52% 29.96 in 10.0 mi SSW 4.6 mph - N/A   Mostly Cloudy
3:35 PM 54.7 °F - 36.5 °F 50% 29.95 in 10.0 mi South 6.9 mph - N/A   Scattered Clouds
3:55 PM 55.6 °F - 34.5 °F 45% 29.95 in 10.0 mi ENE 3.5 mph - N/A   Clear
4:15 PM 55.0 °F - 33.3 °F 44% 29.95 in 10.0 mi ENE 12.7 mph - N/A   Clear
4:35 PM 55.0 °F - 32.5 °F 43% 29.95 in 10.0 mi East 4.6 mph - N/A   Clear
4:55 PM 55.4 °F - 32.0 °F 41% 29.95 in 10.0 mi NE 8.1 mph - N/A   Clear
5:15 PM 54.5 °F - 31.3 °F 41% 29.96 in 10.0 mi NE 11.5 mph - N/A   Clear
5:35 PM 53.6 °F - 32.2 °F 44% 29.97 in 10.0 mi NNE 11.5 mph 17.3 mph N/A   Clear
5:55 PM 52.3 °F - 31.5 °F 45% 29.98 in 10.0 mi NE 9.2 mph - N/A   Clear
6:15 PM 51.4 °F - 29.3 °F 43% 29.98 in 10.0 mi NNE 9.2 mph - N/A   Clear
6:35 PM 51.6 °F - 27.3 °F 39% 29.99 in 10.0 mi North 9.2 mph - N/A   Clear
6:55 PM 50.2 °F - 26.4 °F 40% 29.99 in 10.0 mi NNW 8.1 mph 11.5 mph N/A   Clear
7:15 PM 49.1 °F - 26.8 °F 42% 30.01 in 10.0 mi NNE 4.6 mph - N/A   Clear
7:35 PM 46.8 °F - 29.8 °F 52% 30.01 in 10.0 mi ESE 6.9 mph - N/A   Clear
7:55 PM 46.4 °F 44.3 °F 29.3 °F 51% 30.02 in 10.0 mi ENE 4.6 mph - N/A   Clear
8:15 PM 41.9 °F - 31.5 °F 66% 30.03 in 10.0 mi Calm Calm - N/A   Clear
8:35 PM 40.6 °F - 31.3 °F 69% 30.04 in 10.0 mi Calm Calm - N/A   Clear
8:55 PM 39.4 °F - 31.1 °F 72% 30.05 in 10.0 mi Calm Calm - N/A   Clear
9:15 PM 37.6 °F - 31.3 °F 78% 30.06 in 10.0 mi Calm Calm - N/A   Clear
9:35 PM 36.7 °F - 30.7 °F 79% 30.06 in 10.0 mi Calm Calm - N/A   Clear
9:55 PM 35.6 °F - 31.3 °F 84% 30.06 in 10.0 mi Calm Calm - N/A   Clear
10:15 PM 35.8 °F - 31.1 °F 83% 30.07 in 10.0 mi Calm Calm - N/A   Clear
10:35 PM 35.2 °F - 30.6 °F 83% 30.08 in 10.0 mi Calm Calm - N/A   Clear
10:55 PM 34.2 °F - 31.5 °F 90% 30.08 in 10.0 mi Calm Calm - N/A   Clear
11:15 PM 33.1 °F - 30.4 °F 90% 30.08 in 10.0 mi Calm Calm - N/A   Clear
11:35 PM 33.3 °F - 30.2 °F 89% 30.09 in 10.0 mi Calm Calm - N/A   Clear
11:55 PM 32.9 °F - 30.0 °F 89% 30.10 in 10.0 mi Calm Calm - N/A   Clear